Flag for U.S.A. Weather past 2 weeks in Eau Claire, Wisconsin, U.S.A.

Now
73 °F

Sunny.


Feels Like: 72 °F
Forecast: 71 / 87 °F
Wind: 6 mph from Southeast

Location: Eau Claire County Airport

Current Time: Sep 5, 2015 at 9:39:41 AM

Latest Report: Sep 5, 2015 at 8:56 AM


Visibility: 10 mi

Pressure: 29.98 "Hg

Humidity: 84%

Dew point: 68 °F

Location of Eau ClaireLocation

Historic Weather in Eau Claire — Graph

°F

Eau Claire temperature yesterday

Maximum temperature yesterday: 85 °F (at 2:56 PM)
Minimum temperature yesterday: 69 °F (at 4:56 AM)
Average temperature yesterday: 76 °F

Past Weeks' High & Low Weather Summary

 TemperatureHumidityPressure
High86 °F (Sep 1, 1:56 PM)97% (Aug 26, 3:56 AM)30.20 "Hg (Aug 26, 3:56 AM)
Low45 °F (Aug 26, 4:56 AM)48% (Aug 26, 3:56 PM)29.72 "Hg (Aug 23, 5:56 AM)
Average67 °F79%29.97 "Hg
* Reported Aug 21 7:56 AM — Sep 5 7:56 AM, Eau Claire, Weather by CustomWeather, © 2015

Note: Actual official high and low records may vary slightly from our data, if they occured in-between our weather recording intervals... More about our weather records

Advertising

Eau Claire weather history for previous 24 hours

 ConditionsComfort  
Time TempWeatherWind HumidityBarometerVisibility
7:56 AM
Sat, Sep 5
70 °FSunny.5 mph90%30.00 "Hg9 mi
6:56 AM68 °FFog.5 mph93%30.00 "Hg6 mi
5:56 AM68 °FClear.6 mph93%29.98 "Hg7 mi
4:56 AM70 °FPassing clouds.3 mph90%29.97 "Hg9 mi
3:56 AM71 °FPassing clouds.5 mph87%29.97 "Hg10 mi
2:56 AM71 °FPassing clouds.3 mph87%29.98 "Hg10 mi
1:56 AM72 °FPassing clouds.6 mph84%29.98 "Hg10 mi
12:56 AM72 °FClear.6 mph84%29.97 "Hg10 mi
11:56 PM
Fri, Sep 4
73 °FPassing clouds.7 mph81%29.97 "Hg10 mi
10:56 PM74 °FClear.5 mph82%29.97 "Hg10 mi
9:56 PM75 °FClear.8 mph82%29.96 "Hg10 mi
8:56 PM77 °FClear.12 mph79%29.96 "Hg10 mi
7:56 PM79 °FSunny.9 mph77%29.96 "Hg10 mi
6:56 PM81 °FSunny.8 mph72%29.95 "Hg10 mi
5:56 PM83 °FSunny.10 mph68%29.93 "Hg10 mi
4:56 PM85 °FPassing clouds.10 mph63%29.92 "Hg10 mi
3:56 PM85 °FPassing clouds.10 mph63%29.94 "Hg10 mi
2:56 PM85 °FPassing clouds.10 mph63%29.95 "Hg10 mi
1:56 PM84 °FSunny.10 mph63%29.96 "Hg10 mi
12:56 PM82 °FSunny.10 mph65%29.97 "Hg10 mi
11:56 AM80 °FScattered clouds.9 mph67%29.97 "Hg10 mi
10:56 AM77 °FPartly sunny.9 mph69%29.98 "Hg10 mi
9:56 AM75 °FPartly sunny.9 mph71%29.99 "Hg10 mi
Weather by CustomWeather, © 2015

See weather overviewHow to use our weather pages